When you browse on this site, cookies collect data to enhance your experience and personalize the content and advertising you see.
Visit our Privacy Policy to learn more. By continuing to use the site, you agree to this use of cookies and data.
  • In Belgium
  • List of Countries
  • For 7 days
  • Water Temperature
  • Satellite Maps
  • Weather Map
  • Weather Widgets
  • user-avatar
    Login

    Hourly Weather Vahnovo

    Today, 24 April, Wednesday

    Time Temperature Precipitation Wind Pressure Humidity
    00:00 +12°C° 0 mm 2 mps 753 mmHg 58%
    01:00 +12°C° 0 mm 2 mps 753 mmHg 60%
    02:00 +12°C° 0 mm 2 mps 753 mmHg 60%
    03:00 +10°C° 0 mm 2 mps 753 mmHg 62%
    04:00 +10°C° 0 mm 2 mps 753 mmHg 64%
    05:00 +10°C° 0 mm 2 mps 753 mmHg 66%
    06:00 +12°C° 0 mm 2 mps 753 mmHg 61%
    07:00 +13°C° 0 mm 3 mps 753 mmHg 56%
    08:00 +16°C° 0 mm 3 mps 753 mmHg 49%
    09:00 +17°C° 0 mm 3 mps 753 mmHg 46%
    10:00 +19°C° 0 mm 3 mps 753 mmHg 42%
    11:00 +20°C° 0 mm 4 mps 753 mmHg 38%
    12:00 +20°C° 0 mm 4 mps 753 mmHg 37%
    13:00 +21°C° 0 mm 3 mps 753 mmHg 36%
    14:00 +22°C° 0 mm 3 mps 753 mmHg 33%
    15:00 +23°C° 0 mm 2 mps 753 mmHg 36%
    16:00 +21°C° 0 mm 2 mps 752 mmHg 38%
    17:00 +21°C° 0 mm 2 mps 752 mmHg 41%
    18:00 +19°C° 0 mm 2 mps 752 mmHg 44%
    19:00 +18°C° 0 mm 2 mps 752 mmHg 48%
    20:00 +16°C° 0 mm 2 mps 752 mmHg 52%
    21:00 +16°C° 0 mm 2 mps 752 mmHg 54%
    22:00 +15°C° 0 mm 2 mps 752 mmHg 56%
    23:00 +14°C° 0 mm 2 mps 753 mmHg 58%

    Tomorrow, 25 April, Thursday

    Time Temperature Precipitation Wind Pressure Humidity
    00:00 +14°C° 0 mm 2 mps 753 mmHg 59%
    01:00 +13°C° 0 mm 2 mps 753 mmHg 60%
    02:00 +13°C° 0 mm 2 mps 753 mmHg 61%
    03:00 +13°C° 0 mm 2 mps 753 mmHg 63%
    04:00 +13°C° 0 mm 2 mps 753 mmHg 64%
    05:00 +12°C° 0 mm 2 mps 753 mmHg 65%
    06:00 +14°C° 0 mm 2 mps 753 mmHg 60%
    07:00 +16°C° 0 mm 2 mps 753 mmHg 54%
    08:00 +18°C° 0 mm 2 mps 753 mmHg 49%
    09:00 +19°C° 0 mm 2 mps 753 mmHg 45%
    10:00 +21°C° 0 mm 2 mps 753 mmHg 40%
    11:00 +23°C° 0 mm 2 mps 753 mmHg 36%
    12:00 +24°C° 0 mm 2 mps 752 mmHg 35%
    13:00 +24°C° 0 mm 2 mps 752 mmHg 34%
    14:00 +25°C° 0 mm 2 mps 752 mmHg 32%
    15:00 +24°C° 0 mm 2 mps 751 mmHg 35%
    16:00 +24°C° 0 mm 2 mps 751 mmHg 38%
    17:00 +24°C° 0 mm 1 mps 751 mmHg 40%
    18:00 +21°C° 0 mm 2 mps 751 mmHg 44%
    19:00 +19°C° 0 mm 2 mps 751 mmHg 48%
    20:00 +18°C° 0 mm 2 mps 750 mmHg 52%
    21:00 +17°C° 0 mm 2 mps 750 mmHg 54%
    22:00 +16°C° 0 mm 2 mps 750 mmHg 55%
    23:00 +16°C° 0 mm 2 mps 750 mmHg 57%

    Day after tomorrow, 26 April, Friday

    Time Temperature Precipitation Wind Pressure Humidity
    00:00 +15°C° 0 mm 2 mps 750 mmHg 59%
    01:00 +15°C° 0 mm 2 mps 750 mmHg 60%
    02:00 +14°C° 0 mm 2 mps 750 mmHg 62%
    03:00 +14°C° 0 mm 2 mps 750 mmHg 64%
    04:00 +14°C° 0 mm 1 mps 750 mmHg 65%
    05:00 +14°C° 0 mm 1 mps 750 mmHg 67%
    06:00 +15°C° 0 mm 1 mps 750 mmHg 62%
    07:00 +18°C° 0 mm 1 mps 750 mmHg 58%
    08:00 +19°C° 0 mm 1 mps 750 mmHg 53%
    09:00 +21°C° 0 mm 1 mps 750 mmHg 49%
    10:00 +22°C° 0 mm 1 mps 750 mmHg 44%
    11:00 +24°C° 0 mm 1 mps 750 mmHg 39%
    12:00 +24°C° 0 mm 1 mps 750 mmHg 40%
    13:00 +21°C° 0 mm 0 mps 749 mmHg 40%
    14:00 +21°C° 0 mm 0 mps 749 mmHg 41%
    15:00 +20°C° 0 mm 0 mps 749 mmHg 44%
    16:00 +20°C° 0 mm 0 mps 748 mmHg 47%
    17:00 +19°C° 0 mm 0 mps 748 mmHg 50%
    18:00 +18°C° 0.4 mm 0 mps 748 mmHg 54%
    19:00 +19°C° 0.4 mm 1 mps 748 mmHg 59%
    20:00 +18°C° 0.4 mm 1 mps 748 mmHg 63%
    21:00 +16°C° 0.2 mm 1 mps 748 mmHg 65%
    22:00 +15°C° 0.2 mm 0 mps 748 mmHg 67%
    23:00 +14°C° 0.2 mm 0 mps 748 mmHg 69%

    27 April, Saturday

    Time Temperature Precipitation Wind Pressure Humidity
    00:00 +13°C° 0 mm 0 mps 747 mmHg 71%
    01:00 +14°C° 0 mm 1 mps 747 mmHg 72%
    02:00 +14°C° 0 mm 1 mps 747 mmHg 73%
    03:00 +14°C° 0 mm 1 mps 747 mmHg 73%
    04:00 +14°C° 0 mm 1 mps 747 mmHg 73%
    05:00 +14°C° 0 mm 2 mps 746 mmHg 73%
    06:00 +15°C° 0 mm 2 mps 746 mmHg 69%
    07:00 +17°C° 0 mm 2 mps 746 mmHg 64%
    08:00 +18°C° 0 mm 3 mps 746 mmHg 59%
    09:00 +19°C° 0 mm 3 mps 746 mmHg 54%
    10:00 +21°C° 0 mm 4 mps 745 mmHg 48%
    11:00 +22°C° 0 mm 4 mps 745 mmHg 42%
    12:00 +22°C° 0 mm 4 mps 745 mmHg 43%
    13:00 +22°C° 0 mm 4 mps 744 mmHg 43%
    14:00 +22°C° 0 mm 4 mps 744 mmHg 44%
    15:00 +21°C° 0 mm 4 mps 744 mmHg 48%
    16:00 +21°C° 0 mm 3 mps 743 mmHg 51%
    17:00 +20°C° 0 mm 3 mps 743 mmHg 55%
    18:00 +19°C° 0 mm 3 mps 743 mmHg 58%
    19:00 +17°C° 0 mm 3 mps 743 mmHg 61%
    20:00 +16°C° 0 mm 2 mps 743 mmHg 64%
    21:00 +15°C° 0 mm 2 mps 742 mmHg 66%
    22:00 +15°C° 0 mm 2 mps 742 mmHg 67%
    23:00 +14°C° 0 mm 2 mps 742 mmHg 69%

    28 April, Sunday

    Time Temperature Precipitation Wind Pressure Humidity
    00:00 +13°C° 0 mm 3 mps 742 mmHg 70%
    01:00 +12°C° 0 mm 3 mps 742 mmHg 71%
    02:00 +12°C° 0 mm 3 mps 742 mmHg 72%
    03:00 +12°C° 0 mm 3 mps 741 mmHg 73%
    04:00 +11°C° 0 mm 3 mps 741 mmHg 75%
    05:00 +12°C° 0 mm 2 mps 741 mmHg 76%
    06:00 +13°C° 0 mm 3 mps 741 mmHg 71%
    07:00 +16°C° 0 mm 3 mps 741 mmHg 66%
    08:00 +18°C° 0 mm 3 mps 741 mmHg 62%
    09:00 +17°C° 0.4 mm 3 mps 741 mmHg 66%
    10:00 +17°C° 0.4 mm 3 mps 741 mmHg 70%
    11:00 +17°C° 0.4 mm 3 mps 741 mmHg 74%
    12:00 +16°C° 1.9 mm 3 mps 741 mmHg 80%
    13:00 +14°C° 1.9 mm 3 mps 741 mmHg 85%
    14:00 +13°C° 1.9 mm 3 mps 741 mmHg 91%
    15:00 +13°C° 1.1 mm 4 mps 741 mmHg 89%
    16:00 +13°C° 1.1 mm 5 mps 741 mmHg 88%
    17:00 +13°C° 1.1 mm 6 mps 741 mmHg 86%
    18:00 +11°C° 0 mm 6 mps 742 mmHg 85%
    19:00 +10°C° 0 mm 7 mps 743 mmHg 84%
    20:00 +9°C° 0 mm 7 mps 743 mmHg 83%
    21:00 +8°C° 0 mm 7 mps 744 mmHg 80%
    22:00 +8°C° 0 mm 7 mps 744 mmHg 78%
    23:00 +6°C° 0 mm 7 mps 744 mmHg 76%

    29 April, Monday

    Time Temperature Precipitation Wind Pressure Humidity
    00:00 +6°C° 0 mm 7 mps 745 mmHg 75%
    01:00 +5°C° 0 mm 7 mps 745 mmHg 74%
    02:00 +5°C° 0 mm 7 mps 746 mmHg 74%
    03:00 +4°C° 0 mm 7 mps 746 mmHg 71%
    04:00 +3°C° 0 mm 7 mps 747 mmHg 68%
    05:00 +3°C° 0 mm 7 mps 747 mmHg 66%
    06:00 +3°C° 0 mm 7 mps 748 mmHg 62%
    07:00 +3°C° 0 mm 7 mps 748 mmHg 58%
    08:00 +3°C° 0 mm 7 mps 749 mmHg 55%
    09:00 +4°C° 0 mm 7 mps 749 mmHg 52%
    10:00 +5°C° 0 mm 7 mps 749 mmHg 49%
    11:00 +5°C° 0 mm 7 mps 749 mmHg 46%
    12:00 +6°C° 0 mm 7 mps 749 mmHg 45%
    13:00 +7°C° 0 mm 6 mps 749 mmHg 45%
    14:00 +7°C° 0 mm 6 mps 749 mmHg 44%
    15:00 +7°C° 0 mm 6 mps 749 mmHg 46%
    16:00 +7°C° 0 mm 5 mps 749 mmHg 48%
    17:00 +7°C° 0 mm 5 mps 749 mmHg 50%
    18:00 +6°C° 0 mm 4 mps 749 mmHg 53%
    19:00 +5°C° 0 mm 4 mps 749 mmHg 56%
    20:00 +4°C° 0 mm 3 mps 749 mmHg 58%
    21:00 +4°C° 0 mm 3 mps 749 mmHg 60%
    22:00 +4°C° 0 mm 3 mps 749 mmHg 61%
    23:00 +3°C° 0 mm 3 mps 750 mmHg 62%
    Show more